Date String (YYYY-MM-DD hh:mm:ss) UTC,Instrument flags,Ambient pressure (hPa),Sample flow (lpm),Bypass flow (lpm),Sample temperature (°C),Ambient temperature (°C),ASC tube jacket temperature (°C),LED temperature (°C),Box temperature (°C),Sample RH (%),Span deviation,Mass concentration (μg/m³),Mass concentration (μg/m³),Mass concentration (μg/m³)
DateTimeUTC,F1_M11,P_M11,Q1_M11,Q2_M11,T1_M11,T2_M11,T3_M11,T4_M11,T5_M11,U1_M11,ZSPAN_M11,X0_M11,X2_M11,X1_M11
2022-09-22 12:00:00,,0831.5,5.00,0.00,28.9,27.4,00.0,37.7,30.8,25.6,0000.0,0005.89,0003.85,0003.62
2022-09-22 12:01:00,,0831.4,5.01,0.00,28.9,27.4,00.0,37.7,30.8,25.6,0000.0,0005.99,0003.87,0003.63
2022-09-22 12:02:00,,0831.4,4.99,0.00,28.9,27.4,00.0,37.7,30.8,25.6,0000.0,0006.04,0003.88,0003.63
2022-09-22 12:03:00,,0831.5,5.01,0.00,28.9,27.4,00.0,37.7,30.8,25.7,0000.0,0006.04,0003.88,0003.63
2022-09-22 12:04:00,,0831.4,4.99,0.00,28.9,27.4,00.0,37.7,30.8,25.6,0000.0,0006.02,0003.87,0003.63
2022-09-22 12:05:00,,0831.4,5.01,0.00,28.9,27.5,00.0,37.7,30.8,25.6,0000.0,0005.71,0003.89,0003.64
2022-09-22 12:06:00,,0831.4,5.01,0.00,28.9,27.5,00.0,37.7,30.8,25.5,0000.0,0005.45,0003.91,0003.64
2022-09-22 12:07:00,,0831.4,4.99,0.00,29.0,27.5,00.0,37.7,30.8,25.5,0000.0,0005.61,0003.94,0003.66
2022-09-22 12:08:00,,0831.4,5.01,0.00,29.0,27.5,00.0,37.7,30.8,25.6,0000.0,0005.77,0003.98,0003.67
2022-09-22 12:09:00,,0831.4,4.99,0.00,29.0,27.5,00.0,37.7,30.8,25.6,0000.0,0005.80,0004.00,0003.70
2022-09-22 12:10:00,,0831.3,5.01,0.00,29.0,27.5,00.0,37.7,30.9,25.6,0000.0,0005.71,0004.00,0003.73
2022-09-22 12:11:00,,0831.3,4.99,0.00,29.0,27.5,00.0,37.7,30.9,25.7,0000.0,0005.62,0004.00,0003.76
2022-09-22 12:12:00,,0831.3,5.01,0.00,29.0,27.5,00.0,37.7,30.9,25.7,-000.9,0005.64,0004.03,0003.80
2022-09-22 12:13:00,,0831.4,5.00,0.00,29.0,27.5,00.0,37.7,30.8,25.7,-000.6,0005.70,0004.08,0003.85
2022-09-22 12:14:00,,0831.4,5.00,0.00,29.0,27.5,00.0,37.7,30.8,25.7,-001.2,0006.97,0004.12,0003.91
2022-09-22 12:15:00,,0831.3,4.99,0.00,29.0,27.5,00.0,37.7,30.8,25.7,-001.3,0007.05,0004.15,0003.95
2022-09-22 12:16:00,,0831.3,5.01,0.00,29.0,27.5,00.0,37.7,30.8,25.7,-002.1,0007.11,0004.19,0004.00
2022-09-22 12:17:00,,0831.3,5.00,0.00,29.0,27.5,00.0,37.7,30.9,25.7,-002.8,0007.12,0004.22,0004.05
2022-09-22 12:18:00,,0831.2,4.99,0.00,29.0,27.4,00.0,37.7,30.9,25.8,-003.6,0007.00,0004.23,0004.09
2022-09-22 12:19:00,,0831.2,5.01,0.00,29.0,27.4,00.0,37.7,30.8,25.8,-003.4,0006.87,0004.23,0004.13
2022-09-22 12:20:00,,0831.2,4.99,0.00,29.0,27.4,00.0,37.7,30.8,25.7,-002.4,0006.82,0004.24,0004.16
2022-09-22 12:21:00,,0831.3,5.01,0.00,29.0,27.4,00.0,37.7,30.9,25.7,-002.2,0006.86,0004.26,0004.17
2022-09-22 12:22:00,,0831.3,4.99,0.00,29.0,27.4,00.0,37.7,30.8,25.7,-001.9,0006.92,0004.29,0004.20
2022-09-22 12:23:00,,0831.3,5.01,0.00,29.0,27.4,00.0,37.7,30.8,25.7,-002.1,0006.89,0004.29,0004.21
2022-09-22 12:24:00,,0831.3,4.99,0.00,29.0,27.4,00.0,37.7,30.8,25.7,-002.0,0006.88,0004.29,0004.22
2022-09-22 12:25:00,,0831.4,5.00,0.00,29.0,27.4,00.0,37.7,30.8,25.7,-000.4,0006.13,0004.30,0004.23
2022-09-22 12:26:00,,0831.4,5.01,0.00,28.9,27.4,00.0,37.7,30.8,25.7,-000.3,0005.57,0004.31,0004.24
2022-09-22 12:27:00,,0831.4,4.99,0.00,29.0,27.4,00.0,37.7,30.8,25.9,-001.8,0005.56,0004.31,0004.24
2022-09-22 12:28:00,,0831.4,5.01,0.00,29.0,27.4,00.0,37.7,30.8,27.1,-001.7,0005.57,0004.31,0004.25
2022-09-22 12:29:00,,0831.3,4.99,0.00,29.0,27.4,00.0,37.7,30.8,26.5,-001.4,0005.57,0004.31,0004.25
2022-09-22 12:30:00,,0831.3,5.01,0.00,29.0,27.4,00.0,37.7,30.8,26.1,-001.5,0005.64,0004.33,0004.26
2022-09-22 12:31:00,,0831.4,5.01,0.00,29.0,27.4,00.0,37.7,30.9,26.0,-000.8,0005.69,0004.35,0004.27
2022-09-22 12:32:00,,0831.4,5.00,0.00,29.0,27.4,00.0,37.7,30.8,25.9,-002.0,0005.70,0004.34,0004.27
2022-09-22 12:33:00,,0831.4,5.00,0.00,29.0,27.4,00.0,37.7,30.8,25.9,-002.1,0005.72,0004.34,0004.26
2022-09-22 12:34:00,,0831.4,4.99,0.00,29.0,27.4,00.0,37.7,30.8,25.9,-000.7,0005.79,0004.35,0004.27
2022-09-22 12:35:00,,0831.4,5.00,0.00,29.0,27.4,00.0,37.7,30.8,25.8,-001.5,0005.83,0004.36,0004.27
2022-09-22 12:36:00,,0831.4,4.99,0.00,29.0,27.4,00.0,37.7,30.8,25.9,-001.6,0005.80,0004.34,0004.25
2022-09-22 12:37:00,,0831.5,5.00,0.00,29.0,27.4,00.0,37.7,30.8,25.8,-001.8,0005.80,0004.34,0004.25
2022-09-22 12:38:00,,0831.5,5.01,0.00,29.0,27.4,00.0,37.7,30.8,25.7,-002.1,0005.78,0004.33,0004.25
2022-09-22 12:39:00,,0831.5,4.99,0.00,29.0,27.4,00.0,37.7,30.8,25.8,-002.2,0005.82,0004.33,0004.25
2022-09-22 12:40:00,,0831.4,5.00,0.00,29.0,27.4,00.0,37.7,30.8,25.8,-002.1,0005.86,0004.34,0004.25
2022-09-22 12:41:00,,0831.3,5.01,0.00,29.0,27.4,00.0,37.7,30.8,25.8,-002.0,0006.11,0004.35,0004.27
2022-09-22 12:42:00,,0831.2,4.99,0.00,29.0,27.4,00.0,37.7,30.8,25.8,-002.4,0006.14,0004.36,0004.27
2022-09-22 12:43:00,,0831.2,5.02,0.00,29.0,27.4,00.0,37.7,30.8,25.7,-002.3,0006.19,0004.36,0004.27
2022-09-22 12:44:00,,0831.2,4.99,0.00,29.0,27.4,00.0,37.7,30.8,25.8,-002.2,0006.27,0004.36,0004.27
2022-09-22 12:45:00,,0831.2,5.01,0.00,29.0,27.5,00.0,37.7,30.8,25.8,-002.4,0006.24,0004.35,0004.26
2022-09-22 12:46:00,,0831.2,4.99,0.00,29.0,27.5,00.0,37.7,30.8,25.8,-002.6,0006.37,0004.36,0004.26
2022-09-22 12:47:00,,0831.2,5.01,0.00,29.0,27.5,00.0,37.7,30.8,25.8,-002.7,0006.51,0004.38,0004.27
2022-09-22 12:48:00,,0831.4,4.98,0.00,29.0,27.5,00.0,37.7,30.9,25.7,-003.0,0006.60,0004.40,0004.27
2022-09-22 12:49:00,,0831.5,5.00,0.00,29.0,27.5,00.0,37.7,30.8,25.7,-003.0,0006.65,0004.41,0004.27
2022-09-22 12:50:00,,0831.5,5.00,0.00,29.0,27.5,00.0,37.7,30.9,25.8,-003.0,0006.70,0004.40,0004.26
2022-09-22 12:51:00,,0831.5,5.01,0.00,29.0,27.5,00.0,37.7,30.9,25.8,-002.9,0006.85,0004.41,0004.27
2022-09-22 12:52:00,,0831.5,4.99,0.00,29.0,27.5,00.0,37.7,30.8,25.8,-003.1,0006.64,0004.41,0004.26
2022-09-22 12:53:00,,0831.5,5.00,0.00,29.0,27.5,00.0,37.7,30.8,25.9,-003.2,0006.63,0004.42,0004.27
2022-09-22 12:54:00,,0831.5,5.01,0.00,29.0,27.5,00.0,37.7,30.8,25.9,-003.4,0006.62,0004.44,0004.29
2022-09-22 12:55:00,,0831.5,4.99,0.00,29.0,27.5,00.0,37.7,30.8,25.8,-003.7,0006.54,0004.46,0004.32
2022-09-22 12:56:00,,0831.5,5.01,0.00,29.0,27.5,00.0,37.7,30.8,25.8,-003.6,0006.65,0004.49,0004.34
2022-09-22 12:57:00,,0831.5,4.99,0.00,29.0,27.5,00.0,37.7,30.9,25.8,-003.2,0006.56,0004.50,0004.37
2022-09-22 12:58:00,,0831.6,5.00,0.00,29.0,27.5,00.0,37.7,30.9,25.9,-002.9,0006.47,0004.51,0004.38
2022-09-22 12:59:00,,0831.5,5.01,0.00,29.0,27.5,00.0,37.7,30.9,25.8,-002.5,0006.49,0004.53,0004.41
